Location: San Antonio
(29.4240°N, 98.4930°W)
Time: 09:58:04
(UTC-05:00)

ACS3 Solar Sail - Pass Details

Date: 25 June 2024
Orbit: 992 x 1023 km, 97.4° (Epoch: 12 July)

Event Time Altitude Azimuth Distance (km) Brightness Sun altitude
Exits shadow 00:26:37 20° 263° (W) 2,099 6.6 -34.6°
Maximum altitude 00:26:53 21° 266° (W) 2,095 6.6 -34.6°
Drops below altitude 10° 00:31:22 10° 313° (NW) 2,761 7.8 -34.9°
Sets 00:34:34 0° 329° (NNW) 3,711 8.8 -35.1°
